Location: Roblar
(38.3213°N, 122.7589°W)
Time: 05:14:09
(UTC+00:00)

Daily predictions for brighter satellites

Satellite Brightness Start Highest point End
(mag) Time Altitude Azimuth Time Altitude Azimuth Time Altitude Azimuth
Cosmos 2278 Rocket 4.1 03:56:43 10° SW 04:01:53 36° WNW 04:07:06 10° N
ATLAS 2AS CENTAUR R/B 4.1 03:58:15 10° SSE 04:03:48 21° ESE 04:09:25 10° ENE
Cosmos 1634 Rocket 4.1 03:57:43 10° N 04:04:05 80° E 04:10:24 10° S
MetOp-A 4.3 03:59:27 10° SSE 04:04:41 59° ENE 04:09:57 10° N
STARLINK-1094 4.0 04:01:29 10° NW 04:05:34 61° SW 04:09:38 10° SE
CZ-2C R/B 3.7 04:04:04 10° NNE 04:08:35 64° ESE 04:13:10 10° S
STARLINK-1117 4.1 04:06:30 10° WNW 04:10:32 55° SW 04:14:35 10° SSE
GPS 2-04 Rocket1 3.2 04:08:00 10° W 04:11:10 36° SSW 04:14:20 10° SE
Cosmos 2221 Rocket 3.8 04:07:55 10° S 04:12:26 81° W 04:17:01 10° N
FALCON 9 DEB 4.3 04:11:14 10° S 04:13:55 22° SE 04:16:36 10° ENE
Ariane Rocket 3.7 04:09:23 10° S 04:14:20 54° W 04:19:21 10° NNW
STARLINK-1078 4.3 04:11:29 10° WNW 04:15:29 49° SW 04:19:29 10° SSE
Okean 1 Rocket 4.5 04:12:02 10° NNE 04:15:31 22° ENE 04:18:48 11° SE
SL-4 R/B 2.3 04:11:02 10° SW 04:15:36 79° SE 04:20:24 10° NE
Cosmos 1741 Rocket 4.1 04:11:57 10° NNW 04:17:09 64° ENE 04:22:19 10° SSE
Cosmos 1110 Rocket 4.0 04:13:23 10° S 04:18:27 60° ESE 04:23:33 10° NNE
DMSP B5D2-2 4.1 04:13:26 10° NNE 04:18:44 85° ESE 04:23:59 10° SSW
STARLINK-1108 4.4 04:16:30 10° WNW 04:20:28 44° SW 04:24:23 10° SSE
Cosmos 1850 Rocket 4.1 04:18:34 10° NNW 04:23:57 78° ENE 04:29:15 10° SSE
MOS 1 Rocket 3.7 04:20:43 10° N 04:24:56 59° WNW 04:29:09 10° SSW
STARLINK-60 3.8 04:22:22 10° WSW 04:25:27 52° NW 04:28:33 10° NE
Cosmos 1437 Rocket 2.6 04:23:31 10° S 04:27:19 87° E 04:31:09 10° N
Meteor 1-13 Rocket 4.4 04:21:50 10° S 04:27:28 83° W 04:33:16 10° N
STARLINK-1106 4.4 04:23:46 10° NW 04:27:45 44° NE 04:31:18 12° ESE
Okean 2 Rocket 3.2 04:23:25 10° N 04:27:49 77° W 04:32:11 10° S
ATLAS CENTAUR R/B 3.2 04:28:15 13° SE 04:29:27 15° ESE 04:31:51 10° ENE
Abrixas rocket 2.0 04:26:32 10° NW 04:29:28 72° NNE 04:31:38 17° ESE
Cosmos 1331 Rocket 3.9 04:25:49 10° S 04:30:55 71° ESE 04:36:06 10° NNE
ASTRO E2 4.0 04:28:08 10° WSW 04:31:22 24° S 04:33:40 15° SE
STARLINK-1112 4.2 04:28:43 10° NW 04:32:45 48° NE 04:36:05 14° ESE
Resurs 01 Rocket 1.7 04:32:17 12° SSE 04:36:23 62° ENE 04:40:47 10° N
Cosmos 1300 Rocket 3.9 04:32:57 10° NNW 04:37:21 69° W 04:41:44 10° S
Cosmos 304 Rocket 4.4 04:32:54 10° SSW 04:37:37 60° WNW 04:42:22 10° N
STARLINK-1128 4.1 04:33:40 10° NW 04:37:44 53° NE 04:40:51 16° ESE
deb Kosmos-1763 4.0 04:34:21 10° NNW 04:37:55 66° ENE 04:40:34 17° SSE
CZ-2C R/B 3.2 04:33:50 10° N 04:39:25 67° WNW 04:44:56 10° SSW
STARLINK-1444 3.8 04:39:16 10° WSW 04:41:09 32° NW 04:43:03 10° NNE
STARLINK-1452 3.8 04:39:54 10° WSW 04:41:46 32° NW 04:43:40 10° NNE
BREEZE-M DEB (TANK) 3.0 04:39:48 10° SSW 04:42:04 36° SE 04:46:44 10° ENE
STARLINK-1113 3.9 04:38:38 10° NW 04:42:44 58° NE 04:45:39 18° ESE
STARLINK-1450 3.9 04:41:07 10° WSW 04:42:55 30° NW 04:44:43 10° NNE
STARLINK-1392 3.9 04:41:17 10° WSW 04:43:04 29° NW 04:44:52 10° NNE
STARLINK-1399 3.9 04:41:17 10° WSW 04:43:05 29° NW 04:44:53 10° NNE
STARLINK-1415 3.9 04:41:18 10° WSW 04:43:05 29° NW 04:44:53 10° NNE
STARLINK-1394 3.9 04:41:18 10° WSW 04:43:06 29° NW 04:44:54 10° NNE
STARLINK-1436 (VISORSAT) 3.9 04:41:17 10° WSW 04:43:06 30° NW 04:44:56 10° NNE
STARLINK-1395 3.9 04:41:19 10° WSW 04:43:06 29° NW 04:44:54 10° NNE
STARLINK-1393 3.9 04:41:19 10° WSW 04:43:07 29° NW 04:44:55 10° NNE
STARLINK-1414 3.9 04:41:17 10° WSW 04:43:07 30° NW 04:44:57 10° NNE
STARLINK-1396 3.9 04:41:19 10° WSW 04:43:07 29° NW 04:44:55 10° NNE
STARLINK-1401 3.9 04:41:20 10° WSW 04:43:07 29° NW 04:44:55 10° NNE
STARLINK-1397 3.9 04:41:20 10° WSW 04:43:07 29° NW 04:44:55 10° NNE
STARLINK-1416 3.9 04:41:18 10° WSW 04:43:08 30° NW 04:44:58 10° NNE
STARLINK-1453 3.9 04:41:21 10° WSW 04:43:08 29° NW 04:44:56 10° NNE
STARLINK-1404 3.9 04:41:21 10° WSW 04:43:08 29° NW 04:44:56 10° NNE
STARLINK-1408 3.9 04:41:19 10° WSW 04:43:09 30° NW 04:44:59 10° NNE
STARLINK-1398 3.9 04:41:19 10° WSW 04:43:09 30° NW 04:45:00 10° NNE
STARLINK-1402 3.9 04:41:22 10° WSW 04:43:10 29° NW 04:44:58 10° NNE
STARLINK-1417 3.9 04:41:22 10° WSW 04:43:10 29° NW 04:44:58 10° NNE
SPOT 3 Rocket 3.8 04:38:03 10° S 04:43:10 71° WSW 04:48:21 10° NNW
STARLINK-1419 3.9 04:41:21 10° WSW 04:43:11 30° NW 04:45:01 10° NNE
STARLINK-1413 3.9 04:41:23 10° WSW 04:43:11 29° NW 04:44:59 10° NNE
STARLINK-1406 3.9 04:41:24 10° WSW 04:43:11 29° NW 04:44:59 10° NNE
STARLINK-1440 3.9 04:41:25 10° WSW 04:43:13 29° NW 04:45:01 10° NNE
STARLINK-1445 3.9 04:41:26 10° WSW 04:43:14 29° NW 04:45:02 10° NNE
STARLINK-1420 3.9 04:41:24 10° WSW 04:43:14 30° NW 04:45:04 10° NNE
STARLINK-1422 3.9 04:41:25 10° WSW 04:43:14 30° NW 04:45:05 10° NNE
STARLINK-1443 3.9 04:41:27 10° WSW 04:43:15 29° NW 04:45:03 10° NNE
STARLINK-1454 3.9 04:41:27 10° WSW 04:43:16 29° NW 04:45:03 10° NNE
STARLINK-1457 3.9 04:41:28 10° WSW 04:43:16 29° NW 04:45:04 10° NNE
STARLINK-1460 3.9 04:41:26 10° WSW 04:43:16 30° NW 04:45:06 10° NNE
STARLINK-1456 3.9 04:41:29 10° WSW 04:43:17 29° NW 04:45:04 10° NNE
STARLINK-1451 3.9 04:41:29 10° WSW 04:43:17 29° NW 04:45:05 10° NNE
STARLINK-1442 3.9 04:41:30 10° WSW 04:43:18 29° NW 04:45:06 10° NNE
STARLINK-1458 3.9 04:41:28 10° WSW 04:43:18 30° NW 04:45:08 10° NNE
STARLINK-1405 3.9 04:41:33 10° WSW 04:43:21 29° NW 04:45:08 10° NNE
STARLINK-1421 3.9 04:41:33 10° WSW 04:43:21 29° NW 04:45:08 10° NNE
STARLINK-1410 3.9 04:41:33 10° WSW 04:43:21 29° NW 04:45:09 10° NNE
STARLINK-1400 3.9 04:41:33 10° WSW 04:43:21 29° NW 04:45:09 10° NNE
STARLINK-1446 3.9 04:41:31 10° WSW 04:43:22 30° NW 04:45:12 10° NNE
STARLINK-1407 3.9 04:41:34 10° WSW 04:43:22 29° NW 04:45:10 10° NNE
STARLINK-1439 3.9 04:41:34 10° WSW 04:43:22 29° NW 04:45:10 10° NNE
STARLINK-1437 3.9 04:41:33 10° WSW 04:43:22 30° NW 04:45:12 10° NNE
STARLINK-1409 3.9 04:41:35 10° WSW 04:43:23 29° NW 04:45:11 10° NNE
STARLINK-1423 3.9 04:41:33 10° WSW 04:43:23 30° NW 04:45:13 10° NNE
STARLINK-1351 3.9 04:41:36 10° WSW 04:43:24 29° NW 04:45:12 10° NNE
STARLINK-1370 3.9 04:41:36 10° WSW 04:43:24 29° NW 04:45:12 10° NNE
STARLINK-1418 3.9 04:41:36 10° WSW 04:43:24 29° NW 04:45:12 10° NNE
STARLINK-1434 3.9 04:41:36 10° WSW 04:43:25 29° NW 04:45:12 10° NNE
STARLINK-1403 3.9 04:41:37 10° WSW 04:43:25 29° NW 04:45:13 10° NNE
STARLINK-1447 3.9 04:41:34 10° WSW 04:43:25 30° NW 04:45:15 10° NNE
STARLINK-1455 3.9 04:41:35 10° WSW 04:43:25 30° NW 04:45:15 10° NNE
STARLINK-1441 3.9 04:41:36 10° WSW 04:43:26 30° NW 04:45:16 10° NNE
STARLINK-1433 3.9 04:41:39 10° WSW 04:43:26 29° NW 04:45:14 10° NNE
STARLINK-1448 3.9 04:41:38 10° WSW 04:43:28 30° NW 04:45:18 10° NNE
STARLINK-1438 4.0 04:41:41 10° WSW 04:43:28 29° NW 04:45:16 10° NNE
STARLINK-1411 3.9 04:41:40 10° WSW 04:43:28 29° NW 04:45:15 10° NNE
STARLINK-1449 3.9 04:41:39 10° WSW 04:43:29 30° NW 04:45:19 10° NNE
STARLINK-1412 4.0 04:41:47 10° WSW 04:43:37 30° NW 04:45:27 10° NNE
Cosmos 2151 Rocket 3.8 04:39:08 10° N 04:43:40 76° W 04:48:10 10° S
Cosmos 1302 Rocket 4.3 04:39:37 10° S 04:44:40 47° ESE 04:49:44 10° NNE
Cosmos 1943 Rocket 2.1 04:40:18 10° S 04:45:45 65° ESE 04:51:18 10° NNE
STARLINK-1119 3.8 04:43:35 10° NW 04:47:42 64° NE 04:50:25 20° ESE
Resurs 1-3 4.1 04:45:33 10° S 04:49:52 60° W 04:54:13 10° NNW
H-2A R/B 4.4 04:46:31 10° SW 04:50:13 20° W 04:54:01 10° NW
STARLINK-1114 3.7 04:48:34 10° NW 04:52:42 71° NE 04:55:13 23° ESE
Aureole 2 4.0 04:53:23 10° NNW 04:56:19 80° WSW 04:57:46 27° SSE
Cosmos 1674 Rocket 4.1 04:52:03 10° SSW 04:56:21 61° W 05:00:45 10° N
Cosmos 1378 Rocket 3.6 04:52:00 10° S 04:56:24 82° W 05:00:47 10° N
STARLINK-29 3.6 04:54:27 10° WSW 04:57:38 56° NW 05:00:49 10° NE
STARLINK-1130 (DARKSAT) 3.6 04:53:31 10° NW 04:57:40 78° NE 04:59:59 25° SE
CENTAUR R/B 4.0 04:52:26 10° NNW 04:59:56 39° NE 05:06:36 15° ESE
Milstar 3 Cent rocket 4.1 04:55:38 10° SW 05:02:34 37° SSE 05:15:51 10° E
STARLINK-1084 3.6 04:58:30 10° NW 05:02:40 86° NE 05:04:47 28° SE
STARLINK-1371 4.3 05:05:40 29° ESE 05:05:40 29° ESE 05:08:46 10° ENE
Nadezhda 4 Rocket 3.9 05:00:07 10° S 05:06:15 88° E 05:12:23 10° N
Cosmos 1656 Rocket 4.4 05:04:04 22° SSE 05:06:36 32° ESE 05:11:29 10° NE
STARLINK-1098 3.5 05:03:28 10° NW 05:07:38 86° SW 05:09:33 31° SE
STARLINK-1341 4.2 05:09:39 32° ESE 05:09:39 32° ESE 05:12:57 10° ENE
Cosmos 292 Rocket 3.9 05:09:17 20° S 05:12:25 52° ESE 05:17:08 10° NNE
STARLINK-1123 3.6 05:08:27 10° NW 05:12:36 78° SW 05:14:20 34° SE
SL-8 R/B 3.6 05:07:46 10° WNW 05:12:36 89° SSW 05:15:03 29° SE
STARLINK-1374 4.0 05:13:39 34° SE 05:13:39 34° SE 05:17:07 10° ENE
Cosmos 1378 3.1 05:12:05 19° SSW 05:14:40 79° W 05:18:23 10° N
Cosmos 2082 Rocket 3.9 05:11:49 10° NW 05:16:29 27° WSW 05:21:07 10° SSW
STARLINK-1097 3.6 05:13:26 10° NW 05:17:34 71° SW 05:19:07 36° SSE
STARLINK-1339 3.9 05:17:36 38° SE 05:17:40 38° SE 05:21:20 10° ENE
Cosmos 2369 Rocket 2.1 05:12:57 10° SSW 05:18:38 87° ESE 05:24:19 10° NNE
MetOp-B 4.2 05:16:07 21° S 05:19:44 80° WSW 05:25:06 10° NNW
NOSS 3-2 (C) 4.5 05:13:39 10° NNW 05:21:09 53° NE 05:26:32 23° ESE
ERS-1 Rocket 3.5 05:19:13 28° ESE 05:21:18 43° ENE 05:26:03 10° N
Cosmos 1975 Rocket 3.1 05:19:47 31° SSE 05:21:44 60° E 05:26:04 10° NNE
STARLINK-1377 3.8 05:21:34 41° SE 05:21:49 42° SE 05:25:33 10° ENE
STARLINK-1099 3.7 05:18:25 10° NW 05:22:31 64° SW 05:23:53 38° SSE
Cosmos 1805 3.1 05:20:12 10° N 05:24:08 83° E 05:25:31 39° SSE
STARLINK-1353 3.6 05:25:29 43° SSE 05:25:59 46° SE 05:29:46 10° ENE
NOSS 3-4 (A) 3.3 05:20:25 10° SSW 05:26:13 65° ESE 05:32:18 10° NE
NOSS 3-4 (C) 3.3 05:20:31 10° SSW 05:26:19 64° ESE 05:32:25 10° NE
STARLINK-1104 3.9 05:23:26 10° NW 05:27:31 57° SW 05:28:41 40° S
Landsat 7 3.7 05:25:57 31° SSE 05:28:14 87° E 05:33:01 10° NNW
Lacrosse 5 4.4 05:27:57 10° WSW 05:28:53 10° WSW 05:29:50 10° SW
Cosmos 1470 4.3 05:26:30 10° NNE 05:29:31 21° ENE 05:29:36 21° ENE
STARLINK-1375 3.5 05:29:31 45° SSE 05:30:10 51° SE 05:33:59 10° ENE
STARLINK-1144 4.0 05:28:26 10° WNW 05:32:28 51° SW 05:33:28 40° S
SAR-Lupe-2 4.1 05:29:24 10° N 05:32:57 59° WNW 05:34:57 23° SSW
STARLINK-1350 3.4 05:33:29 44° S 05:34:20 56° SE 05:38:11 10° ENE
SWAS 4.4 05:30:19 10° NNW 05:34:39 83° WSW 05:35:58 44° SSE
Cosmos 968 Rocket 4.1 05:31:27 10° N 05:36:17 40° ENE 05:37:51 32° ESE
Cosmos 1842 3.1 05:36:05 48° S 05:37:04 81° E 05:40:58 10° N
Cosmos 1733 3.0 05:33:36 10° N 05:37:24 78° E 05:38:02 58° SSE
STARLINK-1103 4.1 05:33:27 10° WNW 05:37:25 46° SW 05:38:14 40° SSW
STARLINK-1352 3.4 05:37:31 42° SSW 05:38:35 62° SE 05:42:29 10° NE
STARLINK-1101 4.3 05:38:27 10° WNW 05:42:22 41° SW 05:43:01 38° SSW
STARLINK-1368 3.3 05:41:33 39° SSW 05:42:51 68° SE 05:46:46 10° NE
STARLINK-1369 3.3 05:45:36 36° SW 05:47:07 75° SE 05:51:03 10° NE
STARLINK-1102 4.4 05:43:31 10° WNW 05:47:20 37° SW 05:47:49 35° SSW
BREEZE-M DEB (TANK) 3.5 05:36:03 10° SW 05:48:57 55° SE 05:53:00 10° ENE
Cosmos 1953 4.3 05:48:08 10° NNE 05:50:26 17° ENE 05:50:26 17° ENE
STARLINK-1372 3.3 05:49:38 31° SW 05:51:25 83° SE 05:55:21 10° NE
Cosmos 1271 Rocket 2.9 05:51:50 55° E 05:51:50 55° E 05:55:32 10° NNE
ATLAS 3B CENTAUR R/B 3.7 05:37:54 10° W 05:53:14 46° SSW 05:56:32 34° SSE
ATLAS 2AS CENTAUR R/B 3.1 05:46:02 10° SW 05:53:58 81° WNW 06:02:00 10° NNE
Cosmos 1455 Rocket 2.9 05:50:21 10° N 05:54:42 78° E 05:55:19 63° SSE
STARLINK-1378 3.3 05:53:38 27° SW 05:55:41 90° ESE 05:59:38 10° NE
Cosmos 1092 Rocket 4.4 05:51:41 16° SSW 05:56:33 59° W 06:02:38 10° N
STARLINK-1235 4.1 05:53:58 10° NW 05:57:12 39° NE 05:57:16 39° NE
SL-27 R/B 2.7 05:54:27 10° NNW 05:57:55 60° W 05:57:55 60° W
Spot 2 Rocket 4.4 05:55:54 24° SSW 05:58:22 40° W 06:03:08 10° NNW
COSMOS 2455 2.7 05:56:28 31° S 05:59:26 71° ESE 06:05:26 10° NNE
NOSS 3-2 (A) 4.2 05:51:48 10° NW 05:59:34 69° WSW 06:03:41 33° S
STARLINK-1379 3.4 05:57:43 24° SW 06:00:01 83° NW 06:03:59 10° NE
CARTOSAT-1 3.5 06:00:05 59° S 06:00:50 78° WSW 06:05:10 10° NNW
COSMOS 2487 4.4 05:59:10 10° NNE 06:01:15 19° NE 06:01:15 19° NE
Cosmos 1707 3.2 06:03:58 47° ENE 06:03:58 47° ENE 06:07:11 10° NNE
STARLINK-1329 3.5 06:00:55 21° SW 06:03:27 77° NW 06:07:25 10° NE
SPOT 5 3.1 06:04:50 48° S 06:06:22 81° WSW 06:11:46 10° NNW
STARLINK-1362 3.7 06:04:32 14° WSW 06:07:55 71° NW 06:11:54 10° NE
ATLAS CENTAUR R/B 2.2 06:04:12 13° SW 06:08:00 52° WNW 06:12:07 10° NNE
Cosmos 1758 3.6 06:05:25 10° N 06:09:14 58° ENE 06:09:14 58° ENE
STARLINK-1373 3.8 06:09:15 17° WSW 06:12:15 65° NW 06:16:12 10° NE
Cosmos 1242 Rocket 3.4 06:12:37 42° W 06:13:02 44° WNW 06:16:35 10° N
Resurs 01 Rocket 4.4 06:12:11 10° WSW 06:13:14 11° W 06:14:17 10° WNW
Terra 1.7 06:12:47 66° SSE 06:13:27 86° ENE 06:18:14 10° NNW
USA 238 DEB 4.2 06:06:57 10° NW 06:14:01 54° WSW 06:16:55 35° S
USA 238 4.2 06:07:03 10° NW 06:14:07 55° WSW 06:17:02 36° S
Meteor 2-10 4.4 06:11:22 10° N 06:16:12 45° ENE 06:16:35 44° E
STARLINK-1390 4.0 06:13:24 14° WSW 06:16:39 59° NW 06:20:36 10° NE
Cosmos 1503 Rocket 4.0 06:12:20 10° NNW 06:17:40 70° ENE 06:18:32 59° ESE
STARLINK-1365 4.2 06:17:11 10° WSW 06:21:07 53° NW 06:25:04 10° NE
Cosmos 1536 Rocket 3.4 06:21:52 78° ENE 06:21:52 78° ENE 06:26:05 10° N
Cosmos 2084 3.5 06:28:27 77° NNE 06:28:27 77° NNE 06:32:36 10° NNE
SeaSat 1 3.8 06:27:07 10° NE 06:29:54 25° ENE 06:29:54 25° ENE
Cosmos 1544 Rocket 3.9 06:27:49 10° NNW 06:32:04 54° W 06:32:12 54° WSW
S3M 3.9 06:32:28 10° N 06:38:42 80° E 06:39:53 60° SSE
Cosmos 1354 Rocket 3.9 06:34:24 10° NNW 06:39:44 84° WSW 06:40:09 75° S
Cosmos 1833 4.2 06:34:50 10° NNW 06:40:27 68° WSW 06:41:08 61° SSW
BREEZE-M DEB (TANK) 3.8 06:36:07 10° WNW 06:46:39 61° NNE 06:47:33 50° ENE
Meteor 2-8 Rocket 4.3 06:40:52 10° N 06:47:02 86° W 06:48:06 63° S
Cosmos 1553 Rocket 4.2 06:43:21 10° NNW 06:49:27 61° W 06:50:52 48° SW
CENTAUR R/B 3.4 06:42:56 10° NW 06:51:06 59° WSW 06:53:47 44° S
Spot 4 4.2 06:57:59 57° ENE 06:57:59 57° ENE 07:02:29 10° N
Meteor 1-16 Rocket 3.9 06:52:26 10° N 06:57:52 81° E 06:57:56 81° E
ATLAS 3B R/B 2.7 06:51:51 10° NNW 06:58:45 82° ENE 07:00:14 59° SE
Cosmos 1025 Rocket 4.4 06:58:55 30° W 06:59:16 31° WNW 07:03:06 10° NNW
ALOS 2 4.1 07:00:41 27° ENE 07:00:41 27° ENE 07:03:55 10° NNE
Cosmos 1674 4.2 07:05:25 34° NNE 07:05:25 34° NNE 07:07:38 10° N
Cosmos 1726 3.6 07:01:50 10° NNW 07:04:12 35° NNW 07:04:12 35° NNW
Cosmos 2266 Rocket 4.0 07:06:50 60° SW 07:07:48 71° W 07:13:50 10° N
Cosmos 2098 Rocket 4.3 07:08:10 61° S 07:09:39 82° E 07:17:08 10° N
Cosmos 2227 Rocket 4.0 07:06:11 10° N 07:10:24 21° NE 07:12:15 18° E
Cosmos 1340 Rocket 4.0 07:08:53 10° NNW 07:11:48 40° NW 07:11:48 40° NW
Exosat Rocket 4.0 07:07:57 10° NNW 07:16:08 75° WSW 07:16:59 66° SSW
RESURS DK-1 3.8 07:20:07 34° NW 07:20:07 34° NW 07:23:43 10° N
Cosmos 921 Rocket 4.0 07:21:53 42° NNE 07:21:53 42° NNE 07:24:51 10° NNE
Cosmos 2228 3.9 07:19:32 10° N 07:22:34 45° N 07:22:34 45° N
Meteor 2-5 Rocket 3.6 07:24:06 78° ENE 07:24:06 78° ENE 07:29:33 10° NNE
Lacrosse 4 Rocket 4.2 07:25:52 10° NNE 07:27:05 11° NE 07:28:17 10° ENE
Cosmos 1953 4.2 07:23:46 10° NNW 07:26:08 25° WNW 07:26:08 25° WNW
Meteor 2-21 4.4 07:27:49 67° ESE 07:27:58 68° E 07:34:08 10° NNE
Cosmos 1244 Rocket 4.4 07:30:39 67° ESE 07:30:49 68° E 07:36:55 10° NNE
Cosmos 1626 4.2 07:35:29 25° NNE 07:35:29 25° NNE 07:37:12 10° NNE
Cosmos 1777 Rocket 4.3 07:33:08 10° NNW 07:37:45 62° WNW 07:37:45 62° WNW
Cosmos 1892 Rocket 4.5 07:40:08 46° N 07:40:08 46° N 07:43:17 10° N
Helios 1A 4.4 07:41:24 33° NE 07:41:24 33° NE 07:44:16 10° N
CZ-4C R/B 2.8 07:45:19 43° ENE 07:45:19 43° ENE 07:49:21 10° NE
SJ 16-02 3.0 07:46:30 10° N 07:49:50 28° NE 07:49:50 28° NE
SL-08 R/B 4.5 07:50:15 68° ESE 07:50:28 68° E 07:56:46 10° NNE
Cosmos 1980 Rocket 4.0 07:54:20 20° E 07:54:20 20° E 07:57:20 10° NE
Meteor 2-14 Rocket 4.3 07:55:28 78° WSW 07:55:41 79° W 08:01:51 10° N
Meteor 2-21 Rocket 4.3 07:58:48 85° SSW 07:58:58 88° W 08:05:13 10° N
Cosmos 2369 4.4 08:02:55 42° E 08:02:55 42° E 08:07:24 10° NE
ATLAS CENTAUR R/B 4.2 08:01:59 10° N 08:02:53 17° NNE 08:02:53 17° NNE
Meteor 1-24 Rocket 4.0 08:07:36 55° WNW 08:07:36 55° WNW 08:12:48 10° N
SeaSat 1 3.7 08:04:32 10° N 08:08:54 33° NW 08:09:40 31° WNW
Timation 2 Rocket 4.5 08:04:47 10° NW 08:10:06 45° W 08:10:06 45° W
Cosmos 468 Rocket 4.3 08:13:10 61° NE 08:13:10 61° NE 08:17:25 10° NNE
Cosmos 1656 3.8 08:15:17 68° WNW 08:15:17 68° WNW 08:20:49 10° NNE
Cosmos 2297 Rocket 2.2 08:11:31 10° NNW 08:16:56 79° NNE 08:16:56 79° NNE
Cosmos 2219 3.3 08:14:24 10° NNW 08:19:29 69° WNW 08:19:29 69° WNW
Cosmos 1709 Rocket 4.4 08:23:15 47° E 08:23:33 47° E 08:29:24 10° NNE
Cosmos 1937 Rocket 4.3 08:20:26 10° N 08:25:25 42° ENE 08:25:47 41° ENE
USA 215 4.0 08:22:46 14° ESE 08:28:13 50° NE 08:34:30 10° NW
Cosmos 2082 4.2 08:25:34 10° NNW 08:31:05 52° ENE 08:31:40 50° E
Cosmos 1898 Rocket 3.7 08:27:57 10° NNW 08:32:57 68° NE 08:32:57 68° NE
Meteor 2-1 Rocket 4.2 08:28:46 10° N 08:34:14 74° ENE 08:34:14 74° ENE
Cosmos 2278 3.9 08:39:07 62° E 08:39:07 62° E 08:44:19 10° NNE
Cosmos 1697 Rocket 2.6 08:39:13 79° NW 08:39:13 79° NW 08:44:46 10° NNE
Nadezhda 1 Rocket 3.9 08:37:26 10° N 08:43:41 75° W 08:43:59 74° WSW
Cosmos 990 Rocket 4.1 08:39:43 10° NNW 08:44:22 70° NNW 08:44:22 70° NNW
Cosmos 1814 Rocket 4.4 08:47:07 57° ENE 08:47:07 57° ENE 08:51:51 10° NNE
Cosmos 2285 Rocket 4.4 08:40:47 10° N 08:47:01 55° ENE 08:48:31 45° ESE
Helios 1B rocket 3.6 08:44:22 10° N 08:47:12 42° N 08:47:12 42° N
ATLAS 3B R/B 4.5 08:44:24 10° WNW 08:47:28 17° W 08:47:28 17° W
Resurs 1-4 Rocket 3.7 08:49:30 10° NE 08:53:44 24° E 08:54:06 23° E
Cosmos 1812 Rocket 4.5 08:49:38 10° NNW 08:52:49 45° NNW 08:52:49 45° NNW
Cosmos 2227 Rocket 2.6 08:49:17 10° NNW 08:54:03 52° WNW 08:54:03 52° WNW
Cosmos 1825 Rocket 4.4 08:57:30 48° NNE 08:57:30 48° NNE 09:00:47 10° NNE
Cosmos 841 Rocket 3.5 08:58:06 77° NNE 08:58:06 77° NNE 09:02:57 10° NNE
Cosmos 1570 Rocket 4.1 09:01:12 72° NW 09:01:12 72° NW 09:06:16 10° NNE
Cosmos 1763 Rocket 4.3 09:05:57 38° WNW 09:05:57 38° WNW 09:10:39 10° N
Lacrosse 4 Rocket 2.8 09:02:05 10° NNW 09:04:36 34° NW 09:04:36 34° NW
SL-16 R/B 3.6 09:05:59 24° ESE 09:06:26 25° ESE 09:10:56 10° NE
Cosmos 1703 4.5 09:12:24 40° N 09:12:24 40° N 09:15:00 10° N
Cosmos 1455 3.9 09:09:04 10° NNW 09:11:04 30° NNW 09:11:04 30° NNW
Cosmos 2208 Rocket 4.2 09:19:06 61° WNW 09:19:08 61° WNW 09:24:26 10° N
FALCON 9 R/B 2.9 09:20:20 55° SW 09:21:16 59° S 09:38:20 10° ESE
CZ-2D R/B 2.8 09:17:42 10° NNE 09:22:38 42° E 09:23:08 41° ESE
USA 81 4.4 09:24:19 51° WNW 09:24:19 51° WNW 09:29:19 10° N
Meteor 2-10 Rocket 4.0 09:20:55 10° NNW 09:25:10 46° WNW 09:25:10 46° WNW
SJ 16-02 3.5 09:25:21 10° NW 09:26:48 17° WNW 09:26:48 17° WNW
Cosmos 2360 Rocket 4.3 09:28:00 14° ESE 09:29:46 16° E 09:32:57 10° ENE
CZ-4C R/B 4.0 09:30:27 16° WNW 09:32:55 22° NW 09:37:24 10° N
Cosmos 2184 Rocket 4.1 09:33:27 51° SSE 09:34:53 67° E 09:41:00 10° NNE
Cosmos 1980 Rocket 2.6 09:36:05 46° W 09:36:49 49° WNW 09:42:18 10° NNE
STARLINK-1288 4.4 09:39:04 47° ENE 09:39:04 47° ENE 09:42:10 10° NE
MOZ.5/SAFIR/RUBIN 5/SL-8 3.7 09:41:21 74° ESE 09:41:34 77° ENE 09:46:13 10° N
STARLINK-1308 4.1 09:43:53 55° ENE 09:43:53 55° ENE 09:47:12 10° NE
Gblst 52 Del rocket 4.5 09:41:38 53° WSW 09:43:15 81° NW 09:50:18 10° NE
Cosmos 540 Rocket 4.3 09:42:52 35° WNW 09:43:16 36° WNW 09:47:59 10° N
Meteor 1-11 4.1 09:43:19 67° SW 09:43:58 75° W 09:49:34 10° N
BREEZE M DEB (TANK) 3.4 09:46:53 50° ENE 09:46:53 50° ENE 09:51:59 10° ESE
STARLINK-61 4.5 09:47:33 40° E 09:47:33 40° E 09:50:19 10° NE
Timation 1 Rocket 4.3 09:40:38 10° NNW 09:46:37 80° ENE 09:48:53 40° SSE
Cosmos 2084 Rocket 3.9 09:43:15 10° NW 09:46:51 56° NW 09:46:51 56° NW
Cosmos 1400 Rocket 3.2 09:45:23 10° NNW 09:48:51 60° NNW 09:48:51 60° NNW
STARLINK-1304 3.8 09:53:25 70° NE 09:53:25 70° NE 09:57:08 10° NE
STARLINK-1278 3.8 09:54:58 72° NNW 09:54:58 72° NNW 09:59:05 10° NE
STARLINK-1280 3.8 09:56:44 70° NNW 09:56:44 70° NNW 10:00:55 10° NE
Cosmos 2263 Rocket 2.5 09:52:37 10° NNW 09:58:11 63° ENE 10:01:31 24° SE
NOSS 2-1 (E) 3.7 09:59:04 50° NNE 09:59:04 50° NNE 10:01:46 10° NNE
Cosmos 2181 Rocket 4.3 09:52:06 10° NNW 09:58:18 51° W 09:59:30 45° SW
Cosmos 2297 Rocket 4.4 09:58:32 10° WNW 09:58:43 10° WNW 09:58:43 10° WNW
CZ-4B R/B 3.6 09:58:35 10° NNE 10:03:52 76° ESE 10:05:08 52° S
ADEOS II 3.1 09:59:14 10° NNE 10:04:08 39° E 10:06:13 28° SE
GP-B 3.4 10:01:49 10° N 10:06:01 51° WNW 10:06:01 51° WNW
Cosmos 2221 2.9 10:02:43 10° N 10:07:03 59° E 10:08:05 45° SE
NPP 3.6 10:02:42 10° NNE 10:08:07 83° WNW 10:09:24 54° SSW
Meteor 2-17 Rocket 4.3 10:06:33 47° S 10:08:31 87° W 10:14:40 10° N
STARLINK-1286 3.8 10:08:20 61° WNW 10:08:34 63° NW 10:12:43 10° NE
Cosmos 2154 Rocket 4.0 10:06:42 41° S 10:09:03 80° E 10:15:18 10° N
Cosmos 1842 Rocket 3.5 10:06:39 10° N 10:11:08 83° E 10:11:49 63° SSE
USA 215 3.4 10:10:02 42° SSW 10:11:13 46° SW 10:17:28 10° WNW
IRS-1D 3.8 10:06:21 10° NNE 10:11:32 60° E 10:13:13 40° SSE
SL-16 R/B 2.4 10:09:40 42° S 10:11:52 73° WSW 10:18:03 10° NNW
STARLINK-1281 3.8 10:12:34 57° WNW 10:12:55 60° NW 10:17:01 10° NE
Iridium 2 3.6 10:10:38 10° N 10:14:25 81° E 10:14:25 81° E
Cosmos 2322 Rocket 2.1 10:13:24 48° S 10:14:59 81° ESE 10:20:38 10° NNE
STARLINK-39 4.4 10:17:16 33° ESE 10:17:16 33° ESE 10:20:01 10° ENE
CZ-4C R/B 3.9 10:17:11 49° W 10:17:11 49° W 10:21:18 10° NNW
In-Cosmos 22 Rocket 4.3 10:15:01 38° SSE 10:17:09 70° E 10:22:37 10° NNE
STARLINK-1310 4.0 10:17:19 50° WNW 10:17:53 54° NW 10:21:57 10° NE
STARLINK-31 4.3 10:18:46 35° ESE 10:18:46 35° ESE 10:21:35 10° ENE
ARIANE 5 R/B 3.9 10:14:46 10° NE 10:19:11 31° E 10:22:00 18° SE
IKONOS-2 4.5 10:19:49 60° WSW 10:19:54 61° WSW 10:24:09 10° NNW
STARLINK-69 4.1 10:20:26 40° ESE 10:20:26 40° ESE 10:23:23 10° ENE
STARLINK-21 4.1 10:21:53 39° ESE 10:21:53 39° ESE 10:24:51 10° ENE
STARLINK-1319 4.2 10:22:06 43° WNW 10:22:52 50° NW 10:26:54 10° NE
STARLINK-45 3.8 10:23:38 46° ESE 10:23:38 46° ESE 10:26:46 10° ENE
OceanSat 1 rocket 4.5 10:19:12 10° NNE 10:23:58 86° WNW 10:25:10 51° SSW
Cosmos 1315 Rocket 2.6 10:20:21 10° N 10:24:18 89° SW 10:24:44 69° S
STARLINK-70 3.8 10:24:50 46° ESE 10:24:50 46° ESE 10:27:57 10° ENE
Cosmos 2058 2.9 10:24:58 58° S 10:25:44 82° E 10:29:58 10° N
STARLINK-76 3.8 10:26:45 46° ESE 10:26:45 46° ESE 10:30:00 10° ENE
UNK 4.0 10:26:37 47° WSW 10:26:52 47° W 10:31:17 10° NNW
AQUA 3.9 10:22:37 10° N 10:27:20 64° WNW 10:28:26 48° SW
STARLINK-1277 4.4 10:26:53 38° WNW 10:27:52 45° NW 10:31:51 10° NE
STARLINK-23 3.7 10:28:06 48° ESE 10:28:06 48° ESE 10:31:22 10° ENE
STARLINK-1010 4.3 10:28:24 39° SSE 10:28:51 40° SE 10:32:50 10° ENE
STARLINK-32 3.6 10:29:33 50° SE 10:29:33 50° SE 10:32:51 10° ENE
Cosmos 2150 Rocket 4.3 10:24:44 10° NNW 10:29:34 42° WSW 10:30:00 41° WSW
STARLINK-1021 4.4 10:29:51 37° SSE 10:30:16 38° SE 10:34:07 10° ENE
STARLINK-40 3.5 10:31:18 53° SE 10:31:18 53° SE 10:34:43 10° ENE
STARLINK-44 3.5 10:32:40 55° SE 10:32:40 55° SE 10:36:08 10° ENE
Resurs 1-4 Rocket 2.8 10:28:43 10° N 10:33:38 40° WNW 10:35:11 32° WSW
STARLINK-37 3.2 10:34:38 63° SE 10:34:43 64° SE 10:38:16 10° NE
STARLINK-1019 4.2 10:34:35 40° SSE 10:35:10 42° SE 10:39:06 10° ENE
STARLINK-36 3.3 10:35:38 59° SE 10:35:42 59° SE 10:39:11 10° NE
Nadezhda 3 Rocket 4.0 10:32:25 10° N 10:38:45 75° W 10:42:28 26° S
Cosmos 2237 4.4 10:36:22 32° S 10:39:03 69° ESE 10:44:45 10° NNE
STARLINK-63 3.1 10:39:12 66° S 10:39:27 70° SE 10:43:00 10° NE
Meteor 2-2 Rocket 4.3 10:34:00 10° NNW 10:40:01 74° W 10:43:23 27° S
STARLINK-1012 4.1 10:39:23 42° SSE 10:40:09 47° SE 10:44:08 10° ENE
STARLINK-35 3.1 10:40:40 64° S 10:40:57 68° SE 10:44:31 10° NE
STARLINK-51 3.1 10:42:15 65° S 10:42:35 72° SE 10:46:10 10° NE
STARLINK-30 3.1 10:43:48 64° S 10:44:13 74° SE 10:47:46 10° NE
GEOS 3 Rocket 3.6 10:39:32 10° SE 10:44:42 87° NE 10:49:59 10° NNW
Cosmos 1125 Rocket 3.6 10:40:05 10° NNW 10:45:07 51° WSW 10:46:59 34° SSW
STARLINK-72 3.1 10:45:21 63° SSW 10:45:48 78° SE 10:49:23 10° NE
STARLINK-59 3.1 10:48:30 60° SW 10:49:06 89° SE 10:52:41 10° NE
STARLINK-1026 3.8 10:48:56 42° S 10:50:03 59° SE 10:54:08 10° NE
SL-16 R/B 2.8 10:47:50 28° WSW 10:50:13 43° WNW 10:55:37 10° N
STARLINK-56 3.1 10:49:57 58° SW 10:50:35 87° SE 10:54:09 10° NE
STARLINK-71 3.4 10:49:39 47° SW 10:50:44 86° SE 10:54:46 10° NE
STARLINK-73 3.1 10:51:33 55° SW 10:52:15 90° W 10:55:50 10° NE
Cosmos 1844 Rocket 4.2 10:47:45 10° N 10:52:55 37° ENE 10:58:02 10° SE
STARLINK-50 3.2 10:52:12 50° SW 10:53:06 86° SE 10:56:52 10° NE
COSMOS 2428 4.5 10:48:58 10° SSE 10:53:31 25° ESE 10:58:05 10° NE
STARLINK-60 3.3 10:50:26 10° NW 10:53:36 63° NE 10:56:46 10° ESE
STARLINK-38 3.1 10:53:05 53° SW 10:53:51 86° NW 10:57:25 10° NE
STARLINK-68 3.2 10:53:27 49° WSW 10:54:19 79° NW 10:57:56 10° NE
Meteor 1-28 Rocket 4.3 10:51:13 10° SE 10:54:46 42° ENE 10:58:20 10° N
STARLINK-1013 3.7 10:53:44 40° SSW 10:55:03 66° SE 10:59:09 10° NE
IRS-P3 4.1 10:50:07 10° N 10:55:27 77° WNW 10:58:20 28° SSW
STARLINK-65 3.1 10:54:39 50° WSW 10:55:28 84° NW 10:59:02 10° NE
STARLINK-53 3.2 10:56:16 47° WSW 10:57:10 76° NW 11:00:44 10° NE
SL-4 R/B 2.5 10:53:33 10° NW 10:58:22 76° NE 11:02:54 10° SE
STARLINK-1444 3.4 10:57:43 10° NW 10:59:55 42° NE 11:02:14 10° ESE
STARLINK-1009 3.6 10:58:30 38° SSW 10:59:59 73° SE 11:04:07 10° NE
STARLINK-1452 3.3 10:58:21 10° NW 11:00:33 43° NE 11:02:51 10° ESE
CZ-2D R/B 4.2 10:56:23 10° NNE 11:00:34 52° E 11:03:41 18° S
STARLINK-1450 3.2 10:59:11 10° NW 11:01:20 44° NE 11:03:36 10° ESE
USA 229 DEB 3.9 10:54:04 10° NW 11:01:20 63° WSW 11:08:53 10° SSE
USA 229 3.9 10:54:09 10° NW 11:01:26 63° WSW 11:09:00 10° SSE
STARLINK-1392 3.2 10:59:23 10° NW 11:01:32 44° NE 11:03:49 10° ESE
STARLINK-1415 3.2 10:59:24 10° NW 11:01:33 44° NE 11:03:49 10° ESE
STARLINK-1399 3.2 10:59:24 10° NW 11:01:33 44° NE 11:03:50 10° ESE
STARLINK-1394 3.2 10:59:25 10° NW 11:01:34 44° NE 11:03:51 10° ESE
STARLINK-1395 3.2 10:59:26 10° NW 11:01:35 44° NE 11:03:51 10° ESE
STARLINK-1393 3.2 10:59:26 10° NW 11:01:35 44° NE 11:03:52 10° ESE
STARLINK-1401 3.2 10:59:26 10° NW 11:01:35 44° NE 11:03:52 10° ESE
STARLINK-1396 3.2 10:59:27 10° NW 11:01:36 44° NE 11:03:52 10° ESE
STARLINK-1397 3.2 10:59:27 10° NW 11:01:36 44° NE 11:03:52 10° ESE
STARLINK-1453 3.2 10:59:27 10° NW 11:01:36 44° NE 11:03:52 10° ESE
STARLINK-1404 3.2 10:59:28 10° NW 11:01:37 44° NE 11:03:54 10° ESE
STARLINK-1417 3.2 10:59:30 10° NW 11:01:38 44° NE 11:03:55 10° ESE
STARLINK-1402 3.2 10:59:30 10° NW 11:01:39 44° NE 11:03:55 10° ESE
STARLINK-1413 3.2 10:59:30 10° NW 11:01:39 44° NE 11:03:55 10° ESE
STARLINK-1406 3.2 10:59:31 10° NW 11:01:40 44° NE 11:03:56 10° ESE
STARLINK-1440 3.2 10:59:33 10° NW 11:01:41 44° NE 11:03:58 10° ESE
STARLINK-1445 3.2 10:59:34 10° NW 11:01:42 44° NE 11:03:59 10° ESE
STARLINK-1443 3.2 10:59:34 10° NW 11:01:43 44° NE 11:03:59 10° ESE
STARLINK-1454 3.2 10:59:35 10° NW 11:01:43 44° NE 11:04:00 10° ESE
STARLINK-1457 3.2 10:59:36 10° NW 11:01:44 44° NE 11:04:01 10° ESE
STARLINK-1456 3.2 10:59:36 10° NW 11:01:45 45° NE 11:04:01 10° ESE
STARLINK-1414 3.2 10:59:34 10° NW 11:01:45 45° NE 11:04:04 10° ESE
STARLINK-1451 3.2 10:59:37 10° NW 11:01:45 45° NE 11:04:02 10° ESE
STARLINK-1416 3.2 10:59:36 10° NW 11:01:47 45° NE 11:04:06 10° ESE
STARLINK-1442 3.2 10:59:38 10° NW 11:01:47 45° NE 11:04:03 10° ESE
STARLINK-1408 3.2 10:59:37 10° NW 11:01:48 45° NE 11:04:06 10° ESE
STARLINK-1405 3.2 10:59:41 10° NW 11:01:50 45° NE 11:04:06 10° ESE
STARLINK-1421 3.2 10:59:41 10° NW 11:01:50 45° NE 11:04:07 10° ESE
STARLINK-1410 3.2 10:59:42 10° NW 11:01:50 45° NE 11:04:07 10° ESE
STARLINK-1400 3.2 10:59:42 10° NW 11:01:51 45° NE 11:04:07 10° ESE
STARLINK-1407 3.2 10:59:43 10° NW 11:01:51 45° NE 11:04:08 10° ESE
STARLINK-1439 3.2 10:59:43 10° NW 11:01:52 45° NE 11:04:08 10° ESE
STARLINK-1436 (VISORSAT) 3.2 10:59:41 10° NW 11:01:52 45° NE 11:04:11 10° ESE
STARLINK-1419 3.2 10:59:41 10° NW 11:01:52 45° NE 11:04:11 10° ESE
STARLINK-1409 3.2 10:59:44 10° NW 11:01:52 45° NE 11:04:09 10° ESE
STARLINK-1351 3.2 10:59:44 10° NW 11:01:53 45° NE 11:04:10 10° ESE
STARLINK-1370 3.2 10:59:44 10° NW 11:01:53 45° NE 11:04:10 10° ESE
STARLINK-1418 3.2 10:59:45 10° NW 11:01:54 45° NE 11:04:11 10° ESE
STARLINK-1434 3.2 10:59:45 10° NW 11:01:54 45° NE 11:04:11 10° ESE
STARLINK-1398 3.2 10:59:43 10° NW 11:01:54 45° NE 11:04:14 10° ESE
STARLINK-1403 3.2 10:59:46 10° NW 11:01:55 45° NE 11:04:12 10° ESE
STARLINK-1433 3.2 10:59:47 10° NW 11:01:57 45° NE 11:04:13 10° ESE
STARLINK-1422 3.2 10:59:45 10° NW 11:01:57 45° NE 11:04:16 10° ESE
STARLINK-1420 3.2 10:59:46 10° NW 11:01:58 45° NE 11:04:17 10° ESE
STARLINK-1411 3.2 10:59:49 10° NW 11:01:58 45° NE 11:04:15 10° ESE
STARLINK-1438 3.2 10:59:49 10° NW 11:01:59 45° NE 11:04:15 10° ESE
STARLINK-1460 3.2 10:59:48 10° NW 11:02:00 46° NE 11:04:20 10° ESE
STARLINK-1458 3.2 10:59:52 10° NW 11:02:04 46° NE 11:04:24 10° ESE
STARLINK-1423 3.2 10:59:55 10° NW 11:02:06 46° NE 11:04:25 10° ESE
STARLINK-1446 3.2 10:59:56 10° NW 11:02:09 46° NE 11:04:28 10° ESE
STARLINK-1437 3.2 10:59:58 10° NW 11:02:09 46° NE 11:04:28 10° ESE
STARLINK-1447 3.2 11:00:00 10° NW 11:02:12 46° NE 11:04:32 10° ESE
STARLINK-1455 3.2 11:00:01 10° NW 11:02:12 46° NE 11:04:32 10° ESE
STARLINK-1441 3.2 11:00:02 10° NW 11:02:14 46° NE 11:04:33 10° ESE
STARLINK-1448 3.2 11:00:05 10° NW 11:02:18 46° NE 11:04:37 10° ESE
STARLINK-1449 3.2 11:00:06 10° NW 11:02:19 46° NE 11:04:39 10° ESE
CZ-2D R/B 3.6 10:58:26 10° NNW 11:02:23 22° WNW 11:04:27 18° W
STARLINK-1412 3.2 11:00:15 10° NW 11:02:28 46° NE 11:04:47 10° ESE
NOSS 3-1 (C) 4.2 10:54:59 10° NW 11:02:42 59° WSW 11:11:19 10° SSE
STARLINK-1015 3.5 11:03:17 35° SW 11:04:58 81° SE 11:09:07 10° NE
Cosmos 1892 3.7 11:06:57 27° W 11:07:41 29° WNW 11:11:02 10° NNW
ERS-2 2.9 11:04:22 10° SSE 11:07:55 52° ENE 11:11:31 10° N
SL-08 R/B 3.1 11:04:17 14° S 11:08:18 82° WSW 11:12:56 10° NNW
STARLINK-1016 3.5 11:08:03 32° SW 11:09:55 89° SE 11:14:05 10° NE
Cosmos 1076 Rocket 4.5 11:08:45 26° WSW 11:10:09 32° WNW 11:14:07 10° NNW
H-2A R/B 3.1 11:06:17 10° SSE 11:10:32 49° ENE 11:14:52 10° N
NOSS 3-1 (A) 4.1 11:02:44 10° NW 11:10:35 77° WSW 11:19:25 10° SSE
Cosmos 1766 Rocket 3.9 11:07:18 17° S 11:10:36 64° E 11:14:54 10° NNE
Okean 3 Rocket 3.7 11:08:07 19° S 11:11:20 79° E 11:15:53 10° N
Cosmos 2341 Rocket 4.2 11:08:23 22° SSW 11:12:29 59° W 11:18:45 10° N
CZ-2C R/B 3.8 11:08:57 10° NNE 11:12:32 40° E 11:15:56 11° SSE
Cosmos 773 Rocket 4.0 11:09:51 24° SSW 11:13:03 76° WNW 11:18:21 10° NNE
Cosmos 2360 Rocket 2.3 11:09:47 25° SW 11:13:06 64° WNW 11:18:44 10° NNE
Cosmos 2151 2.9 11:11:12 24° SSW 11:13:40 75° W 11:17:59 10° N
STARLINK-24 3.9 11:12:18 26° WSW 11:14:19 58° NW 11:18:17 10° NE
STARLINK-1008 3.6 11:12:51 29° SW 11:14:55 83° NW 11:19:04 10° NE
STARLINK-1014 3.6 11:17:40 26° WSW 11:19:54 75° NW 11:24:01 10° NE
CZ-3 R/B 4.4 10:46:20 17° SW 11:19:55 50° S 11:31:10 10° E
STARLINK-25 3.9 11:20:22 23° W 11:22:07 43° NW 11:25:24 10° NE
Lacrosse 5 rocket 2.7 11:21:10 14° S 11:23:58 28° SE 11:27:23 10° ENE
Cosmos 1959 Rocket 4.4 11:18:49 14° S 11:24:10 79° W 11:30:18 10° N
Cosmos 2333 Rocket 2.7 11:19:23 12° S 11:24:26 57° ESE 11:29:59 10° NNE
STARLINK-1025 3.7 11:22:25 23° WSW 11:24:52 68° NW 11:29:01 10° NE
STARLINK-29 3.6 11:22:50 10° NW 11:25:59 58° NE 11:29:06 10° ESE
Shenzhou-11 Module 3.5 11:25:49 10° WNW 11:28:00 27° N 11:30:10 10° ENE
STARLINK-1017 3.9 11:27:11 21° WSW 11:29:51 62° NW 11:33:58 10° NE
Cosmos 2322 3.7 11:25:56 16° SSW 11:30:30 87° WNW 11:36:16 10° NNE
Cosmos 2219 Rocket 2.6 11:25:54 11° S 11:31:09 61° ESE 11:36:39 10° NNE
SL-8 Rocket 4.3 11:29:37 16° SSW 11:34:38 53° W 11:40:45 10° N
STARLINK-1023 4.0 11:31:58 18° WSW 11:34:50 56° NW 11:38:55 10° NE
STARLINK-81 4.3 11:33:57 16° W 11:36:27 37° NW 11:39:50 10° NE
Cosmos 2218 Rocket 4.2 11:32:01 13° SSW 11:37:39 61° W 11:44:00 10° N
STARLINK-77 4.4 11:37:09 14° W 11:39:48 34° NW 11:43:09 10° NNE
STARLINK-1007 4.1 11:36:47 16° WSW 11:39:51 51° NW 11:43:55 10° NE
Cosmos 2333 4.2 11:35:10 15° SSW 11:39:53 77° WNW 11:45:32 10° NNE
CZ-2C R/B 4.1 11:36:13 10° NNE 11:40:53 33° E 11:45:30 10° SSE
Cosmos 2263 Rocket 3.7 11:38:16 10° WNW 11:41:28 16° W 11:43:07 14° WSW
Cosmos 1408 4.3 11:40:31 15° WSW 11:42:01 18° WNW 11:44:38 10° NNW
ATLAS 5 CENTAUR R/B 3.0 11:39:56 10° S 11:43:25 29° ESE 11:47:08 10° NE
ADEOS II 3.4 11:39:24 10° NNW 11:43:35 24° WNW 11:47:09 13° WSW
CZ-4B R/B 4.1 11:41:13 10° ESE 11:43:37 21° ENE 11:46:02 10° NNE
Cosmos 1825 3.3 11:42:06 17° WSW 11:44:10 27° WNW 11:47:23 10° NNW
STARLINK-1048 4.3 11:41:33 14° WSW 11:44:50 47° NW 11:48:51 10° NE
IDEFIX/ARIANE 42P 2.6 11:43:22 10° N 11:48:36 69° WNW 11:53:48 10° SSW
STARLINK-1049 4.4 11:46:20 13° WSW 11:49:50 43° NW 11:53:49 10° NE
